Regional Weather Roundup
Issued by NWS Albany, NY

Home | Current Version | Previous Version | Text Only | Print | Product List | Glossary On
Versions: 1 2 3 4 5 6 7 8 9 10 11 12 13 14 15 16 17 18 19 20 21 22 23 24 25 26 27 28 29 30 31 32 33 34 35 36 37 38 39 40 41 42 43 44 45 46 47 48 49 50
000
ASUS41 KALY 060610
RWRALY

NEW YORK STATE HOURLY WEATHER ROUNDUP
NATIONAL WEATHER SERVICE ALBANY NY
100 AM EST FRI MAR 06 2015

NOTE: "FAIR" INDICATES FEW OR NO CLOUDS BELOW 12,000 FEET WITH NO
SIGNIFICANT WEATHER AND/OR NO OBSTRUCTIONS TO VISIBILITY.

NYZ032-033-038>043-046>054-057>066-NYZ062>081-060700-
EAST


CITY           SKY/WX    TMP DP  RH WIND       PRES   REMARKS
ALBANY         FAIR       9  -5  53 NW9       30.44R WCI  -4
GLENS FALLS    CLEAR     -5 -11  75 CALM      30.43R
POUGHKEEPSIE   CLEAR     15  -2  46 NW7       30.43R WCI   5
NEWBURGH       PTCLDY    12   1  62 NW12      30.40R WCI  -2
MONTGOMERY     CLEAR     13  -1  54 NW8       30.40R WCI   2
WHITE PLAINS   CLEAR     15   1  53 N17G23    30.36R WCI  -1
ISLIP          MOCLDY    18   5  57 N15       30.35R WCI   4
NEW YORK CITY  PTCLDY    19   5  54 NW14G22   30.40R WCI   6
CENTRAL PARK     N/A     17   3  54 VRB6G17   30.41R WCI   9
$$

NYZ005>009-017-018-044>046-055-056-060700-
CENTRAL


CITY           SKY/WX    TMP DP  RH WIND       PRES   REMARKS
FULTON         FLURRIES   9   5  84 N5        30.45R WCI   1
SYRACUSE       FLURRIES   4   1  88 W10       30.45S WCI -11
ROME           LGT SNOW   5   3  91 W6        30.45R FOG     WCI  -6
ELMIRA         CLEAR      5  -4  66 S9        30.43F WCI  -9
BINGHAMTON     CLEAR      2  -2  83 W5        30.33R WCI  -8
MONTICELLO     CLEAR      7   0  72 NW9       30.33R WCI  -7
$$

NYZ026>034-041>043-060700-
NORTH


CITY           SKY/WX    TMP DP  RH WIND       PRES   REMARKS
WATERTOWN      CLEAR      2  -7  66 SW6       30.44S WCI  -9
FORT DRUM      NOT AVBL
MASSENA        CLEAR    -14 -22  67 CALM      30.43R
SARANAC LAKE   CLEAR    -22 -27  77 CALM      30.25S
PLATTSBURGH    CLEAR      0 -12  57 CALM      30.41R
$$

NYZ001>004-010>016-019>021-060700-
WEST


CITY           SKY/WX    TMP DP  RH WIND       PRES   REMARKS
NIAGARA FALLS  CLEAR      0  -5  79 W8        30.48S WCI -14
BUFFALO        CLEAR      5  -4  66 W7        30.47S WCI  -7
DUNKIRK        CLEAR     -1  -4  87 S5        30.50S WCI -11
JAMESTOWN      CLOUDY     3  -2  78 CALM      30.37S
WELLSVILLE     CLEAR     -1  -7  75 NW8       30.32F WCI -15
ROCHESTER      PTCLDY     7  -3  64 W8        30.46F WCI  -6
PENN YAN       CLEAR      5  -5  63 SW8       30.42S WCI  -8
$$

             KEY
       WCI = WIND CHILL INDEX
       VSB = VISIBILITY
       HX  = HEAT INDEX
$$



USA.gov is the U.S. government's official web portal to all federal, state and local government web resources and services.